Time,TemperatureF,DewpointF,PressureIn,WindDirection,WindDirectionDegrees,WindSpeedMPH,WindSpeedGustMPH,Humidity,HourlyPrecipIn,Conditions,Clouds,dailyrainin,SoftwareType,DateUTC
2013-04-20 00:07:00,73.8,71.0,30.00,SE,139,0.0,0.0,91,0.00,,,0.00,weatherlink.com 1.10,2013-04-20 04:07:00,
2013-04-20 00:22:00,73.9,71.0,30.00,SE,139,0.0,0.0,91,0.00,,,0.00,weatherlink.com 1.10,2013-04-20 04:22:00,
2013-04-20 00:37:00,73.9,71.0,30.00,SE,139,0.0,0.0,90,0.00,,,0.00,weatherlink.com 1.10,2013-04-20 04:37:00,
2013-04-20 00:52:00,73.9,71.0,30.00,SE,139,0.0,0.0,90,0.00,,,0.00,weatherlink.com 1.10,2013-04-20 04:52:00,
2013-04-20 01:07:00,73.8,71.0,29.99,SE,139,0.0,0.0,90,0.00,,,0.00,weatherlink.com 1.10,2013-04-20 05:07:00,
2013-04-20 01:22:00,73.7,71.0,29.99,SE,142,0.0,0.0,90,0.00,,,0.00,weatherlink.com 1.10,2013-04-20 05:22:00,
2013-04-20 01:37:00,73.6,71.0,29.98,SE,142,0.0,0.0,91,0.00,,,0.00,weatherlink.com 1.10,2013-04-20 05:37:00,
2013-04-20 01:52:00,73.3,71.0,29.97,SE,142,0.0,0.0,91,0.00,,,0.00,weatherlink.com 1.10,2013-04-20 05:52:00,
2013-04-20 02:07:00,73.3,71.0,29.97,SE,142,0.0,0.0,91,0.00,,,0.00,weatherlink.com 1.10,2013-04-20 06:07:00,
2013-04-20 02:22:00,73.0,71.0,29.96,SE,142,0.0,0.0,92,0.00,,,0.00,weatherlink.com 1.10,2013-04-20 06:22:00,
2013-04-20 02:37:00,72.7,70.0,29.96,SE,142,0.0,0.0,92,0.00,,,0.00,weatherlink.com 1.10,2013-04-20 06:37:00,
2013-04-20 02:52:00,72.5,70.0,29.96,SE,142,0.0,0.0,93,0.00,,,0.00,weatherlink.com 1.10,2013-04-20 06:52:00,
2013-04-20 03:07:00,72.4,70.0,29.96,SE,142,0.0,0.0,93,0.00,,,0.00,weatherlink.com 1.10,2013-04-20 07:07:00,
2013-04-20 03:22:00,72.4,71.0,29.96,SW,227,0.0,2.0,94,0.00,,,0.00,weatherlink.com 1.10,2013-04-20 07:22:00,
2013-04-20 03:37:00,72.3,71.0,29.96,SW,227,0.0,0.0,94,0.00,,,0.00,weatherlink.com 1.10,2013-04-20 07:37:00,
2013-04-20 03:52:00,72.2,70.0,29.96,SW,227,0.0,0.0,94,0.00,,,0.00,weatherlink.com 1.10,2013-04-20 07:52:00,
2013-04-20 04:07:00,71.9,70.0,29.95,SW,227,0.0,0.0,94,0.00,,,0.00,weatherlink.com 1.10,2013-04-20 08:07:00,
2013-04-20 04:23:00,71.8,70.0,29.95,SW,227,0.0,0.0,95,0.00,,,0.00,weatherlink.com 1.10,2013-04-20 08:23:00,
2013-04-20 04:38:00,71.9,71.0,29.96,SW,227,0.0,0.0,95,0.00,,,0.00,weatherlink.com 1.10,2013-04-20 08:38:00,
2013-04-20 04:53:00,71.8,70.0,29.96,SW,227,0.0,0.0,95,0.00,,,0.00,weatherlink.com 1.10,2013-04-20 08:53:00,
2013-04-20 05:08:00,71.7,70.0,29.96,SW,227,0.0,0.0,95,0.00,,,0.00,weatherlink.com 1.10,2013-04-20 09:08:00,
2013-04-20 05:23:00,71.7,70.0,29.96,SW,227,0.0,0.0,95,0.00,,,0.00,weatherlink.com 1.10,2013-04-20 09:23:00,
2013-04-20 05:38:00,71.4,70.0,29.96,SW,227,0.0,0.0,95,0.00,,,0.00,weatherlink.com 1.10,2013-04-20 09:38:00,
2013-04-20 05:53:00,71.2,70.0,29.95,SW,227,0.0,0.0,95,0.00,,,0.00,weatherlink.com 1.10,2013-04-20 09:53:00,
2013-04-20 06:08:00,71.1,70.0,29.95,SW,227,0.0,0.0,95,0.00,,,0.00,weatherlink.com 1.10,2013-04-20 10:08:00,
2013-04-20 06:23:00,70.8,69.0,29.95,SW,227,0.0,0.0,95,0.00,,,0.00,weatherlink.com 1.10,2013-04-20 10:23:00,
2013-04-20 06:38:00,70.8,69.0,29.96,SW,227,0.0,0.0,95,0.00,,,0.00,weatherlink.com 1.10,2013-04-20 10:38:00,
2013-04-20 06:53:00,70.8,70.0,29.96,SW,227,0.0,0.0,96,0.00,,,0.00,weatherlink.com 1.10,2013-04-20 10:53:00,
2013-04-20 07:08:00,70.7,70.0,29.96,SW,227,0.0,0.0,96,0.00,,,0.00,weatherlink.com 1.10,2013-04-20 11:08:00,
2013-04-20 07:23:00,70.7,70.0,29.97,SW,227,0.0,0.0,96,0.00,,,0.00,weatherlink.com 1.10,2013-04-20 11:23:00,
2013-04-20 07:38:00,71.1,70.0,29.97,SW,227,0.0,0.0,96,0.00,,,0.00,weatherlink.com 1.10,2013-04-20 11:38:00,
2013-04-20 07:53:00,72.0,71.0,29.98,SW,227,0.0,0.0,97,0.00,,,0.00,weatherlink.com 1.10,2013-04-20 11:53:00,
2013-04-20 08:08:00,72.7,72.0,29.98,SW,227,0.0,0.0,97,0.00,,,0.00,weatherlink.com 1.10,2013-04-20 12:08:00,
2013-04-20 08:23:00,73.0,72.0,29.99,SW,227,0.0,0.0,97,0.00,,,0.00,weatherlink.com 1.10,2013-04-20 12:23:00,
2013-04-20 08:38:00,73.4,72.0,29.98,SW,221,0.0,0.0,96,0.00,,,0.00,weatherlink.com 1.10,2013-04-20 12:38:00,
2013-04-20 08:53:00,74.8,74.0,29.98,SW,219,0.0,0.0,97,0.00,,,0.00,weatherlink.com 1.10,2013-04-20 12:53:00,
2013-04-20 09:08:00,76.1,75.0,29.98,SSE,148,1.0,2.0,96,0.00,,,0.00,weatherlink.com 1.10,2013-04-20 13:08:00,
2013-04-20 09:23:00,77.1,75.0,29.99,South,185,2.0,3.0,94,0.00,,,0.00,weatherlink.com 1.10,2013-04-20 13:23:00,
2013-04-20 09:38:00,78.4,75.0,29.99,West,272,3.0,4.0,90,0.00,,,0.00,weatherlink.com 1.10,2013-04-20 13:38:00,
2013-04-20 09:53:00,79.1,75.0,29.99,West,259,2.0,4.0,86,0.00,,,0.00,weatherlink.com 1.10,2013-04-20 13:53:00,
2013-04-20 10:08:00,79.8,73.0,29.99,North,11,1.0,5.0,79,0.00,,,0.00,weatherlink.com 1.10,2013-04-20 14:08:00,
2013-04-20 10:23:00,80.8,74.0,30.00,West,269,4.0,7.0,79,0.00,,,0.00,weatherlink.com 1.10,2013-04-20 14:23:00,
2013-04-20 10:38:00,81.1,74.0,30.00,SW,232,2.0,7.0,78,0.00,,,0.00,weatherlink.com 1.10,2013-04-20 14:38:00,
2013-04-20 10:53:00,81.8,74.0,30.00,West,271,5.0,8.0,77,0.00,,,0.00,weatherlink.com 1.10,2013-04-20 14:53:00,
2013-04-20 11:08:00,82.2,75.0,30.01,WSW,252,7.0,8.0,78,0.00,,,0.00,weatherlink.com 1.10,2013-04-20 15:08:00,
2013-04-20 11:23:00,80.9,73.0,30.01,West,269,5.0,10.0,78,0.00,,,0.00,weatherlink.com 1.10,2013-04-20 15:23:00,
2013-04-20 11:38:00,82.1,73.0,30.01,SSW,213,3.0,8.0,74,0.00,,,0.00,weatherlink.com 1.10,2013-04-20 15:38:00,
2013-04-20 11:53:00,82.4,73.0,30.00,WSW,252,2.0,7.0,74,0.00,,,0.00,weatherlink.com 1.10,2013-04-20 15:53:00,
2013-04-20 12:08:00,82.2,74.0,30.00,NNW,348,2.0,8.0,75,0.00,,,0.00,weatherlink.com 1.10,2013-04-20 16:08:00,
2013-04-20 12:23:00,81.6,73.0,30.01,NNW,344,6.0,6.0,75,0.00,,,0.00,weatherlink.com 1.10,2013-04-20 16:23:00,
2013-04-20 12:38:00,79.4,73.0,30.02,North,360,2.0,7.0,80,0.04,,,0.04,weatherlink.com 1.10,2013-04-20 16:38:00,
2013-04-20 12:53:00,78.9,74.0,30.01,South,174,0.0,3.0,86,0.09,,,0.09,weatherlink.com 1.10,2013-04-20 16:53:00,
2013-04-20 13:08:00,77.6,73.0,30.01,East,96,3.0,4.0,85,0.09,,,0.09,weatherlink.com 1.10,2013-04-20 17:08:00,
2013-04-20 13:23:00,79.1,73.0,30.01,East,94,6.0,7.0,82,0.09,,,0.09,weatherlink.com 1.10,2013-04-20 17:23:00,
2013-04-20 13:38:00,79.6,74.0,30.00,ESE,105,4.0,6.0,82,0.05,,,0.09,weatherlink.com 1.10,2013-04-20 17:38:00,
2013-04-20 13:53:00,80.7,74.0,30.00,ENE,71,3.0,7.0,80,0.00,,,0.09,weatherlink.com 1.10,2013-04-20 17:53:00,
2013-04-20 14:08:00,82.8,75.0,29.99,East,90,1.0,4.0,76,0.00,,,0.09,weatherlink.com 1.10,2013-04-20 18:08:00,
2013-04-20 14:23:00,83.3,73.0,29.98,East,83,1.0,3.0,71,0.00,,,0.09,weatherlink.com 1.10,2013-04-20 18:23:00,
2013-04-20 14:38:00,83.2,72.0,29.97,ENE,57,1.0,3.0,68,0.00,,,0.09,weatherlink.com 1.10,2013-04-20 18:38:00,
2013-04-20 14:53:00,83.2,72.0,29.96,NNE,19,0.0,1.0,69,0.00,,,0.09,weatherlink.com 1.10,2013-04-20 18:53:00,
2013-04-20 15:08:00,83.3,73.0,29.96,SW,231,1.0,5.0,70,0.00,,,0.09,weatherlink.com 1.10,2013-04-20 19:08:00,
2013-04-20 15:23:00,83.8,71.0,29.96,NW,309,3.0,7.0,66,0.00,,,0.09,weatherlink.com 1.10,2013-04-20 19:23:00,
2013-04-20 15:38:00,84.3,72.0,29.95,NNW,348,5.0,7.0,66,0.00,,,0.09,weatherlink.com 1.10,2013-04-20 19:38:00,
2013-04-20 15:54:00,84.3,71.0,29.95,NW,305,4.0,6.0,64,0.00,,,0.09,weatherlink.com 1.10,2013-04-20 19:54:00,
2013-04-20 16:09:00,84.5,71.0,29.95,NW,323,3.0,8.0,64,0.00,,,0.09,weatherlink.com 1.10,2013-04-20 20:09:00,
2013-04-20 16:24:00,84.4,71.0,29.95,NNW,336,2.0,5.0,64,0.00,,,0.09,weatherlink.com 1.10,2013-04-20 20:24:00,
2013-04-20 16:39:00,84.8,72.0,29.94,NNE,21,2.0,7.0,65,0.00,,,0.09,weatherlink.com 1.10,2013-04-20 20:39:00,
2013-04-20 16:54:00,84.4,71.0,29.94,NW,324,3.0,7.0,64,0.00,,,0.09,weatherlink.com 1.10,2013-04-20 20:54:00,
2013-04-20 17:09:00,84.7,71.0,29.94,NW,322,6.0,8.0,63,0.00,,,0.09,weatherlink.com 1.10,2013-04-20 21:09:00,
2013-04-20 17:24:00,84.0,71.0,29.94,North,360,1.0,9.0,64,0.00,,,0.09,weatherlink.com 1.10,2013-04-20 21:24:00,
2013-04-20 17:39:00,84.1,72.0,29.95,NW,321,2.0,9.0,66,0.00,,,0.09,weatherlink.com 1.10,2013-04-20 21:39:00,
2013-04-20 17:54:00,83.7,70.0,29.95,North,360,7.0,10.0,64,0.00,,,0.09,weatherlink.com 1.10,2013-04-20 21:54:00,
2013-04-20 18:09:00,83.0,71.0,29.95,NW,311,4.0,10.0,68,0.00,,,0.09,weatherlink.com 1.10,2013-04-20 22:09:00,
2013-04-20 18:24:00,82.5,71.0,29.95,NW,322,5.0,10.0,68,0.00,,,0.09,weatherlink.com 1.10,2013-04-20 22:24:00,
2013-04-20 18:39:00,82.4,71.0,29.96,NNE,26,1.0,8.0,69,0.00,,,0.09,weatherlink.com 1.10,2013-04-20 22:39:00,
2013-04-20 18:54:00,81.9,71.0,29.97,East,80,8.0,10.0,70,0.00,,,0.09,weatherlink.com 1.10,2013-04-20 22:54:00,
2013-04-20 19:09:00,80.7,71.0,29.97,NNE,30,3.0,9.0,71,0.00,,,0.09,weatherlink.com 1.10,2013-04-20 23:09:00,
2013-04-20 19:24:00,80.1,70.0,29.98,NNE,27,3.0,11.0,72,0.00,,,0.09,weatherlink.com 1.10,2013-04-20 23:24:00,
2013-04-20 19:39:00,79.6,70.0,29.98,NE,46,4.0,7.0,73,0.00,,,0.09,weatherlink.com 1.10,2013-04-20 23:39:00,
2013-04-20 19:54:00,79.5,72.0,30.00,ESE,119,3.0,4.0,78,0.00,,,0.09,weatherlink.com 1.10,2013-04-20 23:54:00,
2013-04-20 20:09:00,77.6,71.0,30.00,East,101,3.0,5.0,79,0.00,,,0.09,weatherlink.com 1.10,2013-04-21 00:09:00,
2013-04-20 20:24:00,76.1,70.0,30.02,East,92,3.0,8.0,82,0.00,,,0.09,weatherlink.com 1.10,2013-04-21 00:24:00,
2013-04-20 20:39:00,75.2,71.0,30.02,East,101,2.0,10.0,85,0.00,,,0.09,weatherlink.com 1.10,2013-04-21 00:39:00,
2013-04-20 20:54:00,74.4,70.0,30.04,ESE,111,2.0,7.0,87,0.00,,,0.09,weatherlink.com 1.10,2013-04-21 00:54:00,
2013-04-20 21:09:00,74.0,70.0,30.04,East,84,13.0,14.0,88,0.00,,,0.09,weatherlink.com 1.10,2013-04-21 01:09:00,
2013-04-20 21:24:00,73.6,70.0,30.04,East,87,7.0,11.0,89,0.00,,,0.09,weatherlink.com 1.10,2013-04-21 01:24:00,
2013-04-20 21:39:00,73.0,69.0,30.05,ESE,111,2.0,9.0,86,0.00,,,0.09,weatherlink.com 1.10,2013-04-21 01:39:00,
2013-04-20 21:54:00,72.8,68.0,30.06,East,100,1.0,7.0,85,0.00,,,0.09,weatherlink.com 1.10,2013-04-21 01:54:00,
2013-04-20 22:09:00,72.6,68.0,30.06,East,91,2.0,3.0,86,0.00,,,0.09,weatherlink.com 1.10,2013-04-21 02:09:00,
2013-04-20 22:24:00,72.4,69.0,30.07,East,84,1.0,7.0,88,0.00,,,0.09,weatherlink.com 1.10,2013-04-21 02:24:00,
2013-04-20 22:39:00,72.2,69.0,30.08,East,92,1.0,9.0,89,0.00,,,0.09,weatherlink.com 1.10,2013-04-21 02:39:00,
2013-04-20 22:54:00,71.9,69.0,30.07,ENE,76,4.0,6.0,90,0.00,,,0.09,weatherlink.com 1.10,2013-04-21 02:54:00,
2013-04-20 23:09:00,71.9,69.0,30.08,East,82,1.0,6.0,90,0.00,,,0.09,weatherlink.com 1.10,2013-04-21 03:09:00,
2013-04-20 23:24:00,71.3,68.0,30.09,East,92,6.0,10.0,90,0.00,,,0.09,weatherlink.com 1.10,2013-04-21 03:24:00,
2013-04-20 23:39:00,71.0,68.0,30.09,ENE,71,0.0,7.0,91,0.00,,,0.09,weatherlink.com 1.10,2013-04-21 03:39:00,
2013-04-20 23:54:00,70.9,68.0,30.10,ENE,75,3.0,7.0,91,0.00,,,0.09,weatherlink.com 1.10,2013-04-21 03:54:00,